Flag for Germany Weather past 2 weeks in Wittmund, Lower Saxony, Germany

Now
55 °F

Passing clouds.


Feels Like: 55 °F
Forecast: 43 / 54 °F
Wind: 5 mph from Southwest

Location: Wittmundhaven

Current Time: May 23, 2015 at 1:19:40 AM

Latest Report: May 23, 2015 at 12:20 AM


Visibility: N/A

Pressure: 30.18 "Hg

Humidity: 72%

Dew point: 46 °F

Location of WittmundLocation

Historic Weather in Wittmund — Graph

°F

Wittmund temperature yesterday

Maximum temperature yesterday: 66 °F (at 3:20 PM)
Minimum temperature yesterday: 45 °F (at 6:20 AM)
Average temperature yesterday: 56 °F

Past Weeks' High & Low Weather Summary

 TemperatureHumidityPressure
High75 °F (May 11, 4:20 PM)100% (May 8, 6:20 AM)30.33 "Hg (May 8, 6:20 AM)
Low37 °F (May 15, 3:20 AM)36% (May 10, 4:20 PM)29.53 "Hg (May 18, 9:20 PM)
Average51 °F73%30.02 "Hg
* Reported May 7 11:20 PM — May 22 11:20 PM, Wittmund, Weather by CustomWeather, © 2015

Note: Actual official high and low records may vary slightly from our data, if they occured in-between our weather recording intervals... More about our weather records

Advertising

Wittmund weather history for previous 24 hours

 ConditionsComfort  
Time TempWeatherWind HumidityBarometerVisibility
11:20 PM
Fri, May 22
55 °FPassing clouds.5 mph72%30.18 "HgN/A
10:20 PM57 °FPartly sunny.5 mph63%30.18 "HgN/A
9:20 PM57 °FPartly sunny.6 mph67%30.18 "HgN/A
8:20 PM59 °FPartly sunny.8 mph63%30.18 "HgN/A
7:20 PM59 °FPartly sunny.8 mph63%30.18 "HgN/A
6:20 PM61 °FPartly sunny.10 mph59%30.18 "HgN/A
5:20 PM63 °FScattered clouds.14 mph59%30.18 "HgN/A
4:20 PM64 °FScattered clouds.8 mph56%30.18 "HgN/A
3:20 PM66 °FScattered clouds.12 mph49%30.21 "HgN/A
2:20 PM64 °FScattered clouds.9 mph56%30.21 "HgN/A
1:20 PM64 °FScattered clouds.12 mph52%30.21 "HgN/A
12:20 PM63 °FScattered clouds.9 mph59%30.24 "HgN/A
11:20 AM61 °FScattered clouds.10 mph63%30.24 "HgN/A
10:20 AM57 °FPartly sunny.9 mph72%30.27 "HgN/A
9:20 AM55 °FPartly sunny.8 mph72%30.27 "HgN/A
8:20 AM52 °FPartly sunny.8 mph82%30.27 "HgN/A
7:20 AM48 °FPartly sunny.6 mph87%30.27 "HgN/A
6:20 AM45 °FFog.5 mph93%30.27 "HgN/A
5:20 AM46 °FFog.5 mph93%30.27 "HgN/A
4:20 AM46 °FPassing clouds.6 mph93%30.27 "HgN/A
3:20 AM46 °FPassing clouds.5 mph93%30.27 "HgN/A
2:20 AM48 °FPassing clouds.2 mph87%30.30 "HgN/A
1:20 AM48 °FPassing clouds.5 mph87%30.30 "HgN/A
Weather by CustomWeather, © 2015

See weather overviewHow to use our weather pages